User: anonymous   Login
Location: Endfield
(51.6667°N, 0.0667°W)
Time: 16:28:21
(UTC+00:00)
Language:

Cosmos 2369 Rocket - Orbit

View from above orbital plane
View from above orbital plane
View from above satellite
View from above satellite

Ground track
Ground track

The orbit data is extracted from the following two-line orbital elements,

1 26070U 00006B   24200.22452576 -.00000110  00000-0 -31666-4 0  9992
2 26070  71.0026 278.1685 0016301   5.9174 354.2138 14.15650091263691
Epoch (UTC): 18 July 2024 05:23:19
Eccentricity: 0.0016301
inclination: 71.0026°
perigee height: 828 km
apogee height: 852 km
right ascension of ascending node: 278.1685°
argument of perigee: 5.9174°
revolutions per day: 14.15650091
mean anomaly at epoch: 354.2138°
orbit number at epoch: 26369

The dashed part of the orbit path shows where the satellite is in the earth's shadow,  

DLR